Muskegon, MI

5:19 AM EST on December 09, 2019 (GMT -0500)
Muskegon County

Weather History for KMKG - August, 2019

Change the Weather History Date:

Tuesday, August 20, 2019

  Actual Average Record
Temperature  
Mean Temperature 76 °F 70 °F  
Max Temperature 82 °F 79 °F 94 °F (1947)
Min Temperature 68 °F 61 °F 42 °F (1992)
Degree Days  
Heating Degree Days 0 1  
Month to date heating degree days 0 3  
Since 1 June heating degree days 58 80  
Since 1 July heating degree days 1 14  
Cooling Degree Days 10 5  
Month to date cooling degree days 140 117  
Year to date cooling degree days 511 453  
Since 1 June cooling degree days 508 424  
Growing Degree Days 26 (Base 50)    
Moisture  
Dew Point 67 °F    
Average Humidity 77    
Maximum Humidity 90    
Minimum Humidity 64    
Precipitation  
Precipitation 0.00 in 0.11 in 3.30 in (1938)
Month to date precipitation 1.33 2.17  
Year to date precipitation 26.30 19.36  
Snow  
Snow 0.00 in 0.00 in - ()
Month to date snowfall 0.0 0.0  
Since 1 June snowfall 0.0 0.0  
Since 1 July snowfall 0.0 0.0  
Snow Depth 0.00 in    
Sea Level Pressure  
Sea Level Pressure 29.98 in    
Wind  
Wind Speed 5 mph ()    
Max Wind Speed 18 mph    
Max Gust Speed 26 mph    
Visibility 9.1 miles    
Events      
T = Trace of Precipitation, MM = Missing Value Source: Averaged Metar Reports

Daily Weather History Graph

Daily Weather History Graph

Search for Another Location

Airport or City:

Astronomy

Aug. 20, 2019 Rise Set
Actual Time 6:55 AM EDT 8:40 PM EDT
Civil Twilight 6:25 AM EDT 9:10 PM EDT
Nautical Twilight 5:48 AM EDT 9:47 PM EDT
Astronomical Twilight 5:08 AM EDT 10:26 PM EDT
Moon 11:20 PM EDT (8/20) 11:40 AM EDT (8/20)
Length of Visible Light 14h 44m
Length of Day
13h 44m
Waning Gibbous, 78% of the Moon is Illuminated
Aug 20
Waning Gibbous
Aug 23
Last Quarter
Aug 30
New
Sep 5
First Quarter
Sep 14
Full

Hourly Weather History & Observations

Time (EDT) Temp. Heat Index Dew Point Humidity Pressure Visibility Wind Dir Wind Speed Gust Speed Precip Events Conditions
12:55 AM 69.1 °F - 64.0 °F 84% 30.03 in 10.0 mi SE 3.5 mph - N/A   Mostly Cloudy
1:55 AM 69.1 °F - 64.0 °F 84% 30.03 in 10.0 mi Calm Calm - N/A   Overcast
2:55 AM 69.1 °F - 62.1 °F 78% 30.04 in 10.0 mi Calm Calm - N/A   Mostly Cloudy
3:55 AM 69.1 °F - 62.1 °F 78% 30.04 in 10.0 mi East 3.5 mph - N/A   Mostly Cloudy
4:55 AM 70.0 °F - 62.1 °F 76% 30.05 in 10.0 mi NE 3.5 mph - N/A   Overcast
5:55 AM 68.0 °F - 60.8 °F 78% 30.04 in 10.0 mi Calm Calm - N/A   Scattered Clouds
6:55 AM 69.1 °F - 62.1 °F 78% 30.00 in 10.0 mi ENE 5.8 mph - N/A   Overcast
7:55 AM 70.0 °F - 61.0 °F 73% 30.01 in 10.0 mi ESE 9.2 mph - N/A   Mostly Cloudy
8:55 AM 73.9 °F - 61.0 °F 64% 30.00 in 10.0 mi East 6.9 mph - N/A   Mostly Cloudy
9:55 AM 75.0 °F - 63.0 °F 66% 30.00 in 10.0 mi ESE 9.2 mph - N/A   Overcast
10:55 AM 77.0 °F - 66.0 °F 69% 30.01 in 10.0 mi ESE 10.4 mph - N/A   Overcast
11:12 AM 77.0 °F - 66.0 °F 69% 30.01 in 10.0 mi ESE 10.4 mph - N/A   Overcast
11:55 AM 78.1 °F - 66.9 °F 68% 29.99 in 10.0 mi SSE 6.9 mph - N/A   Overcast
12:55 PM 81.0 °F 84.4 °F 70.0 °F 69% 30.00 in 10.0 mi South 5.8 mph - N/A   Overcast
1:04 PM 81.0 °F 84.4 °F 70.0 °F 69% 30.00 in 10.0 mi South 5.8 mph - N/A   Overcast
1:55 PM 82.0 °F 86.7 °F 72.0 °F 71% 29.95 in 10.0 mi South 6.9 mph - N/A   Overcast
2:55 PM 80.1 °F 83.8 °F 72.0 °F 76% 29.98 in 10.0 mi South 10.4 mph - N/A   Overcast
3:55 PM 79.0 °F - 72.0 °F 79% 29.97 in 7.0 mi SW 9.2 mph - N/A   Overcast
4:33 PM 78.1 °F - 72.0 °F 81% 29.96 in 7.0 mi WSW 8.1 mph - N/A   Overcast
4:55 PM 77.0 °F - 72.0 °F 84% 29.96 in 5.0 mi WSW 13.8 mph - N/A   Haze
5:04 PM 77.0 °F - 72.0 °F 84% 29.97 in 2.5 mi WSW 15.0 mph 24.2 mph N/A   Haze
5:45 PM 75.9 °F - 72.0 °F 87% 29.96 in 4.0 mi WSW 12.7 mph 23.0 mph N/A   Overcast
5:55 PM 75.9 °F - 72.0 °F 87% 29.94 in 7.0 mi WSW 12.7 mph 19.6 mph N/A   Overcast
6:40 PM 77.0 °F - 71.1 °F 82% 29.92 in 10.0 mi West 5.8 mph - N/A   Mostly Cloudy
6:55 PM 77.0 °F - 70.0 °F 79% 29.90 in 10.0 mi SW 6.9 mph - N/A   Mostly Cloudy
7:55 PM 78.1 °F - 70.0 °F 76% 29.90 in 10.0 mi WNW 3.5 mph - N/A   Mostly Cloudy
8:55 PM 77.0 °F - 70.0 °F 79% 29.90 in 10.0 mi North 3.5 mph - N/A   Mostly Cloudy
9:55 PM 75.9 °F - 69.1 °F 79% 29.92 in 10.0 mi North 4.6 mph - N/A   Mostly Cloudy
10:55 PM 73.9 °F - 69.1 °F 85% 29.93 in 10.0 mi North 4.6 mph - N/A   Mostly Cloudy
11:55 PM 72.0 °F - 68.0 °F 87% 29.94 in 10.0 mi South 4.6 mph - N/A   Clear